Location: Bush Observatory
(40.2653°N, 94.3194°W)
Time: 08:23:44
(UTC-06:00)

Daily predictions for brighter satellites

Satellite Brightness Start Highest point End
(mag) Time Altitude Azimuth Time Altitude Azimuth Time Altitude Azimuth
Cosmos 1455 Rocket 3.4 17:18:17 10° N 17:22:32 45° E 17:26:47 10° SSE
CSL-04 Rocket 4.4 17:18:59 10° S 17:24:21 60° W 17:29:50 10° NNW
IDEFIX/ARIANE 42P 2.7 17:24:08 10° SSE 17:29:11 55° ENE 17:34:15 10° N
SL-8 Rocket 4.0 17:23:34 10° N 17:29:45 84° E 17:35:55 10° S
AQUARIUS 4.2 17:28:08 10° SSE 17:32:32 57° ENE 17:36:57 10° N
Cosmos 1844 Rocket 3.5 17:33:11 10° SW 17:38:35 50° WNW 17:44:04 10° NNE
Thor Agena Rocket 3.6 17:34:44 10° NNE 17:39:58 74° ESE 17:45:13 10° S
Cosmos 1812 2.6 17:37:13 10° S 17:41:03 77° E 17:44:56 10° N
Cosmos 2366 rocket 4.0 17:35:50 10° N 17:42:12 77° E 17:48:29 10° SSE
SL-27 R/B 3.8 17:41:10 10° NNW 17:44:41 46° WSW 17:48:09 10° S
OE (NEXTSAT) 4.4 17:42:04 10° WSW 17:45:39 89° NNW 17:48:25 16° ENE
Cosmos 2251 Rocket 3.8 17:41:55 10° NNW 17:47:16 77° WSW 17:52:33 10° SSE
Cosmos 2218 Rocket 4.1 17:43:27 10° N 17:49:45 82° W 17:55:56 10° S
CORIOLIS 4.1 17:45:10 10° SSE 17:50:34 78° ENE 17:55:58 10° N
NOSS 2-1 (D) 4.4 17:48:12 10° S 17:51:24 26° ESE 17:53:29 17° ENE
NOSS 2-1 (C) 4.4 17:48:53 10° S 17:52:07 26° ESE 17:54:09 17° ENE
Abrixas 3.6 17:51:07 10° NW 17:53:44 27° NNE 17:54:52 21° ENE
Okean 1 3.3 17:49:44 10° S 17:53:46 77° E 17:57:51 10° N
Meteor 1-18 Rocket 4.5 17:54:06 10° SSW 17:59:44 76° W 18:05:31 10° N
Cosmos 1346 Rocket 2.6 18:00:42 10° S 18:04:34 68° E 18:08:27 10° NNE
Cosmos 2297 3.8 17:59:52 10° S 18:05:22 58° ESE 18:10:21 13° NNE
ISS -1.0 18:04:25 10° NW 18:06:24 15° NNW 18:07:47 12° NNE
BREEZE M DEB (TANK) 3.2 17:56:37 10° SW 18:06:40 67° SSE 18:08:45 24° ENE
Meteor 2-21 4.4 18:02:02 10° N 18:08:13 68° E 18:14:17 10° SSE
Timation 2 Rocket 4.2 18:02:41 10° NNW 18:09:27 60° ENE 18:16:14 10° SE
NOSS 2-1 (E) 3.9 18:07:04 10° S 18:10:38 38° ESE 18:12:13 27° ENE
COSMO-SKYMED 1 2.5 18:10:40 10° NNE 18:14:58 61° E 18:19:16 10° S
Cosmos 1821 Rocket 4.2 18:10:32 10° N 18:16:19 43° ENE 18:22:03 10° SSE
SMAP 4.1 18:12:36 10° S 18:17:04 47° W 18:21:35 10° NNW
Cosmos 2278 Rocket 2.9 18:11:45 10° SW 18:17:16 54° WNW 18:22:50 10° NNE
SL-24 DEB 4.4 18:15:56 10° N 18:20:41 77° W 18:25:20 10° SSW
Intercosmos 25 2.9 18:17:59 10° N 18:21:07 54° E 18:24:26 10° SSE
CZ-3B DEB 3.1 18:20:47 10° W 18:24:49 45° NNW 18:31:38 17° NE
Genesis I 3.7 18:23:07 10° NW 18:27:00 62° WSW 18:30:50 10° SSE
USA 234 3.9 18:22:16 15° NE 18:27:24 49° NNW 18:33:37 10° WSW
Meteor 2-14 Rocket 4.3 18:22:04 10° N 18:28:14 72° E 18:34:20 10° SSE
SL-8 R/B 4.4 18:23:52 10° W 18:28:26 44° NNW 18:30:27 28° NE
Cosmos 2056 Rocket 4.0 18:26:42 10° SSE 18:31:38 38° ESE 18:32:41 35° ENE
METEOR-M 4.4 18:26:49 10° SE 18:31:49 43° ENE 18:36:50 10° N
Cosmos 1025 Rocket 3.1 18:31:06 10° S 18:35:20 53° E 18:36:25 42° NE
GRACE-2 4.4 18:34:07 10° S 18:36:52 58° W 18:37:23 47° NW
GRACE-1 4.5 18:34:33 10° S 18:37:18 56° W 18:37:53 43° NW
Cosmos 921 Rocket 3.0 18:33:43 10° SSW 18:37:57 82° WNW 18:40:22 26° NNE
CZ-4 R/B 4.4 18:37:21 10° SW 18:40:13 18° W 18:43:05 10° NW
Cosmos 1833 Rocket 2.5 18:34:50 10° NNW 18:40:30 75° ENE 18:46:07 10° SSE
Nadezhda 3 Rocket 4.1 18:34:19 10° SSW 18:40:31 76° W 18:46:49 10° N
Cosmos 1743 2.7 18:37:43 10° N 18:41:37 85° W 18:45:28 10° S
NOSS 3-4 (A) 4.0 18:35:11 10° NNW 18:41:57 49° NE 18:45:08 31° ESE
NOSS 3-4 (C) 4.0 18:35:17 10° NNW 18:42:03 48° NE 18:45:09 31° ESE
Meteor 1-19 Rocket 4.2 18:36:46 10° S 18:42:33 87° E 18:48:27 10° N
Cosmos 2082 Rocket 2.1 18:37:41 10° NNW 18:43:23 88° WSW 18:49:04 10° SSE
COSMOS 2487 4.0 18:41:21 10° NW 18:44:43 38° WSW 18:48:03 10° S
Cosmos 1624 Rocket 4.0 18:39:57 10° S 18:44:59 55° ESE 18:46:00 47° ENE
Cosmos 1484 Rocket 3.7 18:42:41 10° S 18:46:18 46° W 18:49:54 10° NNW
GEOS 3 Rocket 3.5 18:47:42 39° ESE 18:49:29 64° NE 18:54:33 10° NNW
Cosmos 1371 Rocket 3.9 18:44:41 10° SSW 18:50:02 77° ESE 18:52:09 38° NNE
Meteor 1-28 Rocket 3.1 18:50:54 68° N 18:51:20 84° W 18:55:06 10° SSW
Meteor 2-16 Rocket 4.4 18:46:02 10° N 18:52:09 82° W 18:58:13 10° S
Tiangong 1 2.4 18:49:33 10° W 18:51:36 38° W 18:51:36 38° W
Meteor 1-15 Rocket 4.3 18:48:32 10° N 18:54:20 55° ENE 19:00:00 10° SSE
Meteor 1-23 Rocket 4.1 19:03:25 10° S 19:09:09 88° W 19:11:35 36° N
Delta 2 Rocket 4.3 19:07:24 10° WSW 19:10:22 39° SSW 19:10:22 39° SSW
Meteor 2-4 Rocket 4.0 19:13:12 10° SSW 19:18:32 62° WNW 19:21:04 31° N
Meteor 2-9 Rocket 4.2 19:14:57 10° NNW 19:20:22 71° W 19:25:39 10° S
Cosmos 2369 Rocket 4.3 19:17:46 10° S 19:18:34 14° SSE 19:18:34 14° SSE
Cosmos 1934 Rocket 4.5 19:26:28 10° NNW 19:32:33 59° W 19:38:41 10° S
ATLAS 3B CENTAUR R/B 4.1 19:55:26 10° W 20:07:39 32° SSW 20:08:44 31° S
